Regional Weather Roundup
Issued by NWS

Home | Current Version | Previous Version | Text Only | Print | Product List | Glossary On
Versions: 1 2 3 4 5 6 7 8 9 10 11 12 13 14 15 16 17 18 19 20 21 22 23 24 25 26 27 28 29 30 31 32 33 34 35 36 37 38 39 40 41 42 43 44 45 46 47 48 49 50
000
ASUS43 KDMX 280004
RWRIA

WEATHER ROUNDUP FOR IOWA
NATIONAL WEATHER SERVICE DES MOINES IA
  ISSUED BY NWS QUAD CITIES IA IL
600 PM CST FRI FEB 27 2015

NOTE: "FAIR" INDICATES FEW OR NO CLOUDS BELOW 12,000 FEET WITH NO
SIGNIFICANT WEATHER AND/OR OBSTRUCTIONS TO VISIBILITY.

* - THESE STATIONS ARE NOT NWS STATIONS...THUS NOT UNDER NWS
QUALITY CONTROL.  THEY ALSO DO NOT REPORT WEATHER SUCH
AS PRECIPITATION OR FOG.

IAZ001>003-012>014-020>022-031>034-043>046-280100-
   NORTHWEST IOWA

CITY           SKY/WX    TMP DP  RH WIND       PRES   REMARKS
CARROLL *      CLEAR      9  -2  61 S5        30.52S WCI   0
CHEROKEE *     CLEAR      8   0  68 S7        30.50S WCI  -3
6HR MIN TEMP:   6; 6HR MAX TEMP:  12;

DENNISON *     CLEAR     10   0  61 S5        30.49S WCI   2
LE MARS *      CLEAR     12   3  67 SE7       30.48F WCI   2
ORANGE CITY *  CLEAR     12   1  62 S6        30.46S WCI   3
SHELDON *      CLEAR      9   1  72 S10       30.45S WCI  -6
SPENCER        CLEAR      6  -2  69 S7        30.48F WCI  -6
6HR MIN TEMP:   6; 6HR MAX TEMP:  12;

STORM LAKE *   CLEAR      5  -4  66 S7        30.49S WCI  -7
$$

IAZ055>058-069>071-079>083-090>094-280100-
   SOUTHWEST IOWA

CITY           SKY/WX    TMP DP  RH WIND       PRES   REMARKS
ATLANTIC *     CLEAR     14   0  52 CALM      30.52S
AUDUBON *      CLEAR     10   0  61 CALM      30.51S
CLARINDA *     CLEAR     19   0  42 E5        30.55S WCI  13
CRESTON *      CLEAR     12   1  62 SE6       30.52R WCI   3
HARLAN *       CLEAR     12   3  67 SE6       30.55S WCI   3
LAMONI         CLEAR     13  -1  54 CALM      30.54R
6HR MIN TEMP:   7; 6HR MAX TEMP:  15;

RED OAK *      CLEAR     18   3  53 SE5       30.53S WCI  11
SHENANDOAH *   CLEAR     18   0  45 SE5       30.54S WCI  11
$$

IAZ047>049-059>061-072>074-084-280100-
   CENTRAL IOWA

CITY           SKY/WX    TMP DP  RH WIND       PRES   REMARKS
AMES           CLEAR      8  -2  63 CALM      30.56F
6HR MIN TEMP:   5; 6HR MAX TEMP:  11;

ANKENY *       CLEAR      9   0  66 NE5       30.57S WCI   0
BOONE *        CLEAR     10  -2  56 CALM      30.52F
CHARITON *     CLEAR     10  -2  56 SE5       30.55S WCI   2
DES MOINES     PTCLDY    13  -3  49 S5        30.56S WCI   5
6HR MIN TEMP:   8; 6HR MAX TEMP:  15;

GRINNELL *     CLEAR      6  -3  67 CALM      30.57F
6HR MIN TEMP:   5; 6HR MAX TEMP:  10;

KNOXVILLE *    CLEAR     10  -2  56 CALM      30.56R
MARSHALLTOWN   CLEAR      6  -4  63 CALM      30.56F
6HR MIN TEMP:   2; 6HR MAX TEMP:   8;

NEWTON *       CLEAR      7  -4  61 NE5       30.57S WCI  -2
PELLA *        CLEAR      9   1  70 CALM      30.59S
6HR MIN TEMP:   9; 6HR MAX TEMP:  17;

PERRY *          N/A     11   3  71 CALM      30.54F
6HR MIN TEMP:   8; 6HR MAX TEMP:  14;

$$

IAZ004>006-015-016-023>025-035-036-280100-
   NORTH CENTRAL IOWA

CITY           SKY/WX    TMP DP  RH WIND       PRES   REMARKS
ALGONA *       CLEAR      7   0  72 S7        30.51S WCI  -5
CLARION *      CLEAR      3  -4  72 S8        30.53S WCI -10
ESTHERVILLE    CLEAR      7   1  76 S7        30.48S WCI  -5
6HR MIN TEMP:   6; 6HR MAX TEMP:  11;

FORT DODGE *   CLEAR      7  -2  66 S5        30.53F WCI  -2
6HR MIN TEMP:   7; 6HR MAX TEMP:  10;

MASON CITY     CLEAR      2  -4  76 S7        30.53S WCI -11
6HR MIN TEMP:   2; 6HR MAX TEMP:   7;

FOREST CITY *  FAIR       3  -4  72 S6        30.51S WCI  -8
WEBSTER CITY * CLEAR      7   0  72 CALM      30.52F
IOWA FALLS *   FAIR       3  -4  71 S6        30.55F HAZE    WCI  -8
6HR MIN TEMP:   3; 6HR MAX TEMP:   9;

$$

IAZ007>011-017>019-026>030-037>042-050>054-066-280100-
   NORTHEAST IOWA

CITY           SKY/WX    TMP DP  RH WIND       PRES   REMARKS
CEDAR RAPIDS   CLEAR      4  -6  63 CALM      30.59S
6HR MIN TEMP:  -2; 6HR MAX TEMP:   7;

CHARLES CITY * CLEAR      3  -6  66 SW6       30.55S WCI  -8
CLINTON *      CLEAR      1  -8  66 CALM      30.64S
6HR MIN TEMP:   1; 6HR MAX TEMP:   9;

DECORAH *      CLEAR      5  -6  61 SW5       30.54R WCI  -4
DUBUQUE        CLEAR      2  -8  63 W7        30.57R WCI -11
6HR MIN TEMP:   2; 6HR MAX TEMP:   9;

MONTICELLO *   CLEAR      3  -6  66 CALM      30.60R
OELWEIN *      CLEAR      0  -9  65 W5        30.56S WCI -10
WATERLOO       FAIR       3  -6  66 W5        30.58S WCI  -6
6HR MIN TEMP:   2; 6HR MAX TEMP:   7; 6HR PCP: TRACE;

$$

IAZ064-065-067-068-078-280100-
   EAST CENTRAL IOWA

CITY           SKY/WX    TMP DP  RH WIND       PRES   REMARKS
DAVENPORT      CLEAR      3  -6  66 W5        30.63R WCI  -6
6HR MIN TEMP:   1; 6HR MAX TEMP:   8;

IOWA CITY      CLEAR      6  -4  63 CALM      30.63F
6HR MIN TEMP:   2; 6HR MAX TEMP:   8;

MT. PLEASANT * CLEAR      1  -6  71 E7        30.62S WCI -11
6HR MIN TEMP:   1; 6HR MAX TEMP:  13;

MUSCATINE *    CLEAR      9  -4  56 CALM      30.64S
QUAD CITIES    CLEAR      7  -7  52 SW5       30.63S WCI  -2
6HR MIN TEMP:   7; 6HR MAX TEMP:  14;

$$

IAZ062-063-075>077-085>089-095>099-280100-
   SOUTHEAST IOWA

CITY           SKY/WX    TMP DP  RH WIND       PRES   REMARKS
BURLINGTON     CLEAR      8  -2  63 E6        30.62R WCI  -2
6HR MIN TEMP:   8; 6HR MAX TEMP:  13;

FAIRFIELD *    CLEAR      5  -6  61 E3        30.60S
FORT MADISON * CLEAR      9  -2  61 CALM      30.62S
KEOKUK *       CLEAR     10   0  61 E6        30.62R WCI   1
OSKALOOSA *    FAIR       6  -3  68 NE6       30.59S WCI  -5
6HR MIN TEMP:   6; 6HR MAX TEMP:  11;

CENTERVILLE *  FAIR      10   0  61 CALM      30.58R
OTTUMWA        CLEAR      9  -1  64 E6        30.58S WCI  -1
6HR MIN TEMP:   7; 6HR MAX TEMP:  14;

WASHINGTON *   CLEAR      3  -2  78 NE6       30.61S WCI  -8
$$

ABBREVIATIONS USED IN REMARKS
   TC - TEMPERATURES IN CELSIUS
  WCI - WIND CHILL INDEX
   HX - HEAT INDEX
  VSB - VISIBILITY
$$



USA.gov is the U.S. government's official web portal to all federal, state and local government web resources and services.